Vorticity
nan nan nan nan nan nan nan nan nan nan nan nan nan nan nan nan nan nan nan nan nan nan nan nan nan nan nan nan nan nan nan nan nan nan nan nan nan nan nan nan nan nan nan nan nan nan nan nan nan
nan 8 6 7 10 9 7 7 7 4 7 8 7 7 3 4 14 16 10 10 5 5 4 5 4 6 6 6 7 7 6 6 6 5 3 5 4 4 5 5 5 6 6 5 3 6 6 5 nan
nan 6 8 8 13 7 8 7 6 3 4 7 4 6 11 8 15 10 8 8 5 4 5 7 7 6 5 5 6 7 7 6 5 5 6 5 5 7 6 5 4 5 6 5 4 3 5 6 nan
nan 8 9 11 9 8 11 5 4 5 6 9 4 9 10 11 10 11 11 4 5 4 8 5 7 5 4 5 5 5 6 6 5 5 6 6 9 9 6 5 5 5 5 5 6 5 5 6 nan
nan 5 11 11 7 7 6 7 7 7 8 8 8 8 12 9 11 14 6 6 3 5 7 6 5 5 6 6 6 5 5 4 4 6 6 6 7 6 6 6 6 4 5 6 6 5 4 6 nan
nan 10 11 6 6 6 8 5 5 7 9 9 11 4 6 13 14 7 4 7 4 7 5 5 5 6 6 6 5 5 6 6 6 6 6 7 6 5 6 6 6 5 6 6 6 5 4 5 nan
nan 11 9 8 4 7 5 6 7 6 8 9 3 2 8 12 8 7 6 6 6 5 6 5 5 5 4 5 5 5 5 6 6 6 4 7 6 4 5 6 4 5 5 5 6 5 5 5 nan
nan 9 6 5 5 8 8 7 5 4 9 6 6 8 15 15 7 4 8 6 6 4 4 8 5 5 4 5 6 5 5 5 5 3 4 1 -0 -0 2 3 7 8 5 4 4 5 6 8 nan
nan 12 7 4 8 8 7 4 6 7 5 4 9 15 24 16 4 4 9 6 5 6 4 6 5 6 5 4 7 5 5 4 4 3 1 -2 5 4 -0 3 7 8 5 3 5 7 7 8 nan
nan 10 4 6 6 8 9 6 7 5 6 6 6 16 15 7 4 4 5 7 6 5 5 4 5 5 5 5 6 4 7 5 3 4 3 6 5 6 4 7 9 6 7 4 8 8 10 7 nan
nan 5 6 7 4 6 9 7 4 6 8 9 13 11 6 4 4 5 4 6 6 4 5 5 7 5 2 5 3 5 7 8 8 7 2 3 7 7 7 9 9 8 5 9 10 7 8 7 nan
nan 3 4 7 10 8 6 5 8 6 3 11 21 12 6 5 6 6 6 6 6 6 5 5 6 5 3 4 6 4 5 8 7 9 6 4 5 8 6 5 6 6 7 12 6 7 8 11 nan
nan 3 7 9 9 7 6 6 5 12 6 12 16 10 6 5 6 7 8 7 7 8 6 6 5 5 4 4 4 8 6 5 9 7 7 4 5 7 6 7 7 9 8 7 5 7 8 10 nan
nan 8 10 11 9 10 5 5 4 10 11 14 10 8 8 8 6 6 8 7 8 6 8 9 6 6 5 5 5 6 4 8 11 8 10 5 3 6 7 8 7 9 10 7 5 7 9 11 nan
nan 10 7 9 8 9 10 8 11 7 8 8 7 8 9 8 7 7 7 5 6 4 7 10 11 6 7 7 6 5 8 4 4 11 9 9 7 5 7 7 8 10 8 7 8 5 8 10 nan
nan 10 7 6 9 10 3 6 17 7 6 7 7 7 8 9 7 6 7 7 7 8 10 6 10 11 8 6 5 7 5 7 8 7 9 6 6 4 8 8 9 9 8 8 7 8 9 6 nan
nan 4 9 5 9 6 4 1 12 11 7 6 7 6 7 8 8 8 8 7 7 4 6 10 6 11 8 8 8 7 6 6 6 9 7 10 10 8 6 8 9 6 8 8 7 7 8 9 nan
nan 9 6 7 13 8 7 6 7 9 8 7 7 7 7 8 10 9 8 9 6 8 5 6 5 5 5 8 8 8 10 7 8 8 7 10 11 9 6 8 9 7 7 8 8 6 8 8 nan
nan 9 8 11 7 7 10 8 9 11 8 7 7 8 6 7 10 10 8 9 9 10 13 9 8 3 3 7 10 8 8 8 7 7 10 10 10 9 8 8 9 6 7 10 9 6 5 5 nan
nan 7 12 6 1 6 7 8 10 10 10 10 8 6 7 9 7 8 9 7 11 5 12 14 9 4 3 5 7 9 10 10 9 8 11 12 10 10 8 8 10 9 8 10 7 6 7 8 nan
nan 7 5 3 10 13 8 11 11 12 11 9 6 7 9 9 11 10 9 9 11 10 7 8 10 9 7 2 3 8 6 8 11 10 12 11 10 9 9 8 7 9 10 10 9 7 5 6 nan
nan 8 3 4 7 10 8 12 10 11 15 10 10 10 9 10 10 11 14 13 10 11 12 10 9 9 5 6 5 5 5 8 7 10 11 10 9 7 10 9 8 7 7 10 8 8 7 10 nan
nan 0 4 7 10 14 7 5 7 7 10 17 17 12 12 11 11 12 12 14 10 11 12 12 12 9 5 6 7 8 6 7 9 10 9 8 10 9 7 7 10 8 9 8 8 9 9 5 nan
nan 6 8 8 12 9 11 6 6 5 8 10 16 18 14 10 10 11 12 11 10 8 10 12 9 8 8 9 9 6 9 7 7 7 7 9 10 12 9 9 8 8 9 8 9 7 7 5 nan
nan 5 9 11 8 5 10 8 7 9 9 7 12 16 13 10 9 10 9 9 9 9 10 8 9 7 9 10 8 8 9 9 8 7 8 9 8 10 11 12 7 8 10 9 8 8 8 9 nan
nan 7 4 3 7 12 1 4 2 12 13 12 12 14 14 9 8 10 9 9 9 8 7 8 9 8 9 9 9 9 10 8 9 9 8 9 9 10 12 10 9 9 8 9 9 7 10 8 nan
nan 8 4 11 10 3 3 12 8 9 12 13 11 13 12 10 9 10 10 9 9 9 7 8 8 9 10 8 8 9 7 8 10 8 6 6 10 12 13 10 10 10 10 9 7 9 10 8 nan
nan 14 13 6 5 8 8 10 13 4 13 17 13 11 13 11 8 9 10 9 9 9 10 9 9 10 8 8 9 9 9 10 11 10 8 6 9 11 12 13 10 11 10 10 8 10 10 8 nan
nan 2 -3 3 10 13 11 5 10 10 5 9 17 20 14 10 8 8 10 10 10 10 11 11 9 10 9 9 9 8 9 10 10 10 10 13 12 11 12 13 11 12 11 11 10 8 9 10 nan
nan nan nan nan nan nan nan nan nan nan nan nan nan nan nan nan nan nan nan nan nan nan nan nan nan nan nan nan nan nan nan nan nan nan nan nan nan nan nan nan nan nan nan nan nan nan nan nan nan
CAPE
210 341 226 724 697 514 486 423 469 751 550 212 86 222 836 1109 1137 802 557 687 1049 723 548 1184 2622 2710 2815 3256 3132 3090 3065 2615 2710 2198 1674 2284 2418 2206 2479 1322 1561 1847 1882 1972 2171 2069 1527 2231 2315
728 609 551 145 471 383 251 112 696 983 613 598 242 622 989 1477 734 459 615 660 1162 710 545 802 2515 2902 2839 3099 3119 3157 2716 2532 2413 2095 2195 2325 2062 2211 2403 1264 1682 1726 2330 2422 1365 1787 1785 1689 2042
714 376 398 372 495 563 567 166 678 487 644 554 669 745 881 903 437 469 732 631 1009 777 568 1499 2530 2899 2555 2707 3007 3041 2770 2130 2214 2289 2423 2329 1814 2333 2196 1327 1766 2161 2105 1925 543 380 1421 1758 1988
516 698 679 666 651 942 751 776 792 748 618 569 392 306 278 293 302 554 553 458 995 814 807 1416 2434 2010 2441 2699 2860 2333 2438 2453 2516 2426 2217 2141 2024 2252 1887 1440 1740 1855 1519 1034 604 37 304 1473 1908
358 584 553 423 639 321 311 642 328 544 427 466 239 87 441 319 217 420 395 282 977 724 919 1066 2466 2577 2693 2250 2523 2295 1922 1933 1894 1768 1674 1847 1934 2034 1948 1958 1790 1651 1121 776 574 383 564 756 1150
541 543 391 207 244 267 301 348 452 523 459 399 79 184 606 501 729 519 323 132 415 823 733 886 2169 2377 2325 1872 1839 2227 2395 1899 2131 2171 1985 1845 1644 1765 1729 1602 1725 1707 1388 1012 790 629 764 751 794
596 527 331 351 531 623 701 723 494 484 649 243 102 513 655 417 695 515 255 60 77 89 196 575 851 1719 1767 1716 1499 1487 1797 2174 2044 2063 2085 1727 1425 1268 1190 1242 1225 1207 1086 975 756 535 482 604 433
494 449 393 278 413 482 719 686 483 520 723 392 521 748 812 643 555 576 337 37 3 53 119 476 663 1015 1262 1426 1306 1383 1532 1667 2002 2204 1951 970 788 622 703 503 963 1026 1259 1183 1027 648 480 426 737
196 475 218 167 206 479 789 610 610 541 714 743 771 853 1136 800 555 638 588 58 12 54 206 617 882 1402 970 1016 1161 1578 1703 1651 1954 1593 810 136 99 0 140 189 519 355 656 220 471 711 932 583 563
158 274 313 367 198 77 562 622 630 529 544 964 1151 1217 1109 909 930 651 590 191 17 39 163 370 693 1180 1510 1045 1579 1629 2270 1366 2046 599 874 236 9 45 47 316 94 130 255 696 645 990 1310 1121 434
0 207 255 312 458 542 501 721 747 453 534 668 1256 1496 1314 1061 708 900 876 547 35 17 93 192 440 580 687 592 1068 942 2141 2065 1839 1436 876 495 251 197 244 351 153 116 99 229 424 634 1153 921 763
120 0 12 97 387 558 669 638 720 594 700 358 1113 1429 1385 1178 735 399 510 513 77 11 49 131 210 461 391 373 352 320 1486 2363 963 1546 1182 786 418 371 329 9 10 30 170 117 296 731 1194 1215 1126
0 0 1 14 217 533 747 663 655 579 549 636 1139 1406 1389 1269 931 554 283 294 105 34 10 60 197 507 484 461 343 429 837 1481 1027 1815 1534 1603 667 419 185 285 185 12 34 154 242 1182 1509 1290 1241
0 0 9 122 237 375 610 614 703 796 915 955 1213 1377 1374 1328 1127 810 411 344 128 43 28 42 146 389 459 512 485 994 856 1936 1636 1161 1074 1212 1040 1289 964 1112 1089 155 153 60 377 1411 1081 1383 1260
0 23 11 16 344 437 647 646 674 1089 1202 1294 1298 1384 1422 1507 1421 1233 646 375 121 157 247 82 140 172 362 433 545 790 1260 1336 1002 1625 1243 804 1141 1283 1284 1713 1148 195 104 113 356 1247 1517 1133 1493
35 29 54 9 175 622 597 117 635 1239 1406 1422 1401 1476 1510 1717 1680 1653 1278 677 358 162 95 136 129 98 237 343 565 883 1168 925 2646 1639 1146 684 1267 1487 1095 1666 1093 383 146 162 639 1438 1934 1890 1479
49 85 30 21 147 462 546 142 867 1171 1342 1560 1703 1755 1731 1893 1838 1838 1596 1031 321 120 77 1037 381 780 1059 1165 583 932 888 1381 1069 1538 1294 1393 1273 1786 621 1897 1128 948 700 750 735 1166 1583 1339 539
39 30 27 39 45 92 448 523 694 1031 1388 1320 1771 1787 1929 2090 2138 1981 1852 1530 635 110 122 1285 301 20 15 132 1016 2268 893 881 1086 2731 2077 1687 1641 1801 1554 1877 1317 1162 778 762 673 1276 1148 883 1089
0 16 30 26 79 325 406 408 312 1041 1228 1298 1398 1743 1979 2114 2059 2003 1817 1685 1587 1353 1060 1051 45 27 17 138 391 1073 671 809 1419 1455 1561 1478 1590 1424 1739 1512 1665 1273 1145 823 970 1489 1255 975 729
10 28 39 36 116 147 335 426 602 870 1117 1153 1383 1743 1919 1917 2018 1885 1687 1614 1415 1421 616 146 60 21 24 486 2173 2399 2251 1635 1656 1616 2234 1659 1286 1594 1495 1617 1583 1593 805 937 978 1098 1816 1044 714
27 22 12 6 0 92 415 432 587 898 1142 1368 1355 1457 1672 1769 1637 1768 1528 1484 1230 1471 587 370 667 417 694 1346 1966 1915 1731 1982 1838 2013 1205 1483 1364 922 1461 1497 1288 1573 1330 693 728 919 1026 1572 1032
26 0 0 0 0 126 348 355 469 338 814 1519 1627 1639 1619 1566 1512 1324 1236 1222 1004 1294 1325 1262 985 753 635 1369 1813 1814 1598 2124 2729 2717 1200 964 801 725 1113 1040 1406 1572 1056 626 663 513 620 1278 1903
10 0 0 0 0 81 252 324 336 447 125 175 917 1501 1728 1599 1351 1068 1204 1279 1347 1134 1165 1362 1106 593 1018 1378 1557 2190 1677 2464 2036 2469 1394 1030 841 1338 1289 1324 1448 1424 1387 904 753 589 1019 714 1271
0 0 0 0 5 171 133 176 172 213 134 146 943 1307 1752 1494 1020 1148 1249 1105 1023 976 989 1178 1456 1443 1566 1795 1804 1971 1923 1848 2034 2061 1947 1280 1271 1392 1704 1536 1558 1298 1562 1591 1233 1229 1242 1098 950
0 0 111 155 162 133 143 63 108 117 93 159 407 1265 1800 1186 1034 1111 1182 971 875 910 1052 1389 1616 1749 1635 1914 1974 2035 2028 2060 1830 1751 1519 1688 1793 1627 1653 1808 1628 2391 1465 1551 1595 1377 1460 1458 1429
0 11 176 167 164 186 274 13 64 1 22 435 430 797 1579 1167 919 916 965 966 886 933 1053 986 1377 1621 1656 1722 1966 2366 2430 2044 1764 1833 1582 1556 1745 1925 1593 1926 1667 1573 1412 1418 1334 1338 1420 1237 1397
0 0 4 8 3 8 25 14 1 7 2 220 603 726 1349 1110 909 801 817 898 830 609 820 989 1411 1685 1867 1895 2418 2521 2471 2147 1979 2185 1736 1055 1523 2030 2514 2299 1949 1758 1747 1666 1949 1615 1469 1405 1424
0 4 15 29 60 119 107 15 10 1 30 169 554 688 1160 1131 993 820 701 735 783 630 641 848 1088 1457 1908 1923 2189 2284 2421 2489 2582 2364 1986 2212 2382 2105 2642 2607 2400 2180 1981 1840 2020 2286 2096 1560 1493
0 0 0 10 28 105 117 60 19 14 2 156 175 653 1047 1170 1160 895 798 746 807 758 760 847 1287 1502 1811 2018 2071 2204 2395 2390 2283 2179 2306 2484 2511 2302 2167 2244 2524 1951 1989 2084 2240 2211 1997 1967 2055
0 40 27 51 101 93 28 3 4 113 156 170 256 647 912 1196 1254 909 797 794 904 962 877 1008 1301 1860 1986 2112 2478 2525 2567 2797 2628 2646 2488 2337 2263 2264 2427 2501 2279 1788 1912 1976 1987 1912 1741 1840 1890